This demonstration page uses our WeatherBlox Daily Observations layout. Learn more.

Left ArrowRight Arrow

Hourly Observations for August 19, 2018

Temp ( °F °C ) Dew Point ( °F °C ) Humidity (%) Winds ( mph kmh ) Pressure ( in mb ) Visibility ( mi km ) Precip ( " mm )
12:15 am 00:15 Clear with Mist and Fog 66 18.9 66 18.9 100 100 Calm 30.00 1016 3 4 0.00 0.00
12:35 am 00:35 Mostly Cloudy with Fog 64 17.9 64 17.9 100 100 Calm 30.00 1016 1 1 0.00 0.00
12:55 am 00:55 Clear with Mist and Fog 65 18.5 65 18.5 100 100 NNW 3 6 30.00 1016 4 6 0.00 0.00
1:15 am 01:15 Clear with Mist and Fog 65 18.6 65 18.6 100 100 Calm 30.00 1016 5 8 0.00 0.00
1:35 am 01:35 Clear with Mist and Fog 65 18.6 65 18.6 100 100 Calm 30.00 1016 5 8 0.00 0.00
1:55 am 01:55 Clear with Mist and Fog 66 18.7 66 18.7 100 100 Calm 30.00 1016 5 8 0.00 0.00
2:15 am 02:15 Clear with Mist and Fog 65 18.3 65 18.3 100 100 Calm 29.97 1015 3 5 0.00 0.00
2:35 am 02:35 Clear with Mist and Fog 65 18.2 65 18.2 100 100 Calm 29.97 1015 4 6 0.00 0.00
2:55 am 02:55 Clear with Mist and Fog 64 17.9 64 17.9 100 100 Calm 29.97 1015 3 4 0.00 0.00
3:15 am 03:15 Mostly Cloudy with Fog 63 17.4 63 17.4 100 100 Calm 29.97 1015 1 1 0.00 0.00
3:35 am 03:35 Clear with Mist and Fog 64 18 64 18 100 100 Calm 29.97 1015 3 4 0.00 0.00
3:55 am 03:55 Clear with Mist and Fog 64 17.7 64 17.7 100 100 Calm 29.97 1015 3 5 0.00 0.00
4:15 am 04:15 Mostly Cloudy with Mist and Fog 62 16.9 62 16.9 100 100 Calm 29.97 1015 1 2 0.00 0.00
4:35 am 04:35 Clear with Mist and Fog 62 16.9 62 16.9 100 100 Calm 29.97 1015 2 3 0.00 0.00
4:55 am 04:55 Mostly Cloudy with Mist and Fog 63 17 63 17 100 100 Calm 29.97 1015 1 2 0.00 0.00
5:15 am 05:15 Mostly Cloudy with Mist and Fog 63 17 63 17 100 100 Calm 29.97 1015 2 2 0.00 0.00
5:35 am 05:35 Mostly Cloudy with Mist and Fog 63 17 63 17 100 100 Calm 29.97 1015 2 2 0.00 0.00
5:55 am 05:55 Mostly Cloudy with Mist and Fog 63 17.4 63 17.4 100 100 Calm 29.97 1015 1 1 0.00 0.00
6:15 am 06:15 Mostly Cloudy with Fog 62 16.7 62 16.7 100 100 Calm 29.97 1015 0 0 0.00 0.00
6:35 am 06:35 Mostly Cloudy with Fog 63 17.3 63 17.3 100 100 Calm 30.00 1016 1 1 0.00 0.00
6:55 am 06:55 Mostly Cloudy with Fog 62 16.8 62 16.8 100 100 Calm 30.00 1016 0 0 0.00 0.00
7:15 am 07:15 Mostly Cloudy with Fog 61 16 61 16 100 100 Calm 29.97 1015 5 8 0.00 0.00
7:35 am 07:35 Mostly Cloudy with Fog 62 16.4 62 16.4 100 100 Calm 30.00 1016 0 0 0.00 0.00
7:55 am 07:55 Mostly Cloudy with Fog 63 17 63 17 100 100 Calm 30.00 1016 5 8 0.00 0.00
8:15 am 08:15 Mostly Cloudy with Fog 65 18.1 65 18.1 100 100 Calm 30.00 1016 0 0 0.00 0.00
8:35 am 08:35 Sunny with Mist and Fog 66 18.7 66 18.7 100 100 Calm 30.00 1016 2 3 0.00 0.00
8:55 am 08:55 Sunny with Mist and Fog 67 19.4 67 19.4 100 100 Calm 30.00 1016 3 5 0.00 0.00
9:15 am 09:15 Sunny with Mist and Fog 68 19.9 68 19.9 100 100 Calm 30.00 1016 5 8 0.00 0.00
9:35 am 09:35 Sunny 69 20.4 69 20.4 100 100 Calm 30.00 1016 7 11 0.00 0.00
9:55 am 09:55 Sunny 70 21 70 21 100 100 Calm 30.00 1016 7 11 0.00 0.00
10:15 am 10:15 Sunny 71 21.8 71 21.5 98 98 Calm 29.97 1015 10 16 0.00 0.00
10:35 am 10:35 Sunny 74 23.3 70 21.3 89 89 Calm 29.97 1015 10 16 0.00 0.00
10:55 am 10:55 Sunny 75 24.1 71 21.6 86 86 Calm 29.97 1015 10 16 0.00 0.00
11:15 am 11:15 Sunny 77 25 70 21.2 80 80 Calm 29.97 1015 10 16 0.00 0.00
11:35 am 11:35 Partly Cloudy 77 25.1 70 20.9 78 78 Calm 29.97 1015 10 16 0.00 0.00
11:55 am 11:55 Partly Cloudy 78 25.5 70 21 76 76 NNE 3 6 30.00 1016 10 16 0.00 0.00
12:15 pm 12:15 Partly Cloudy 79 26 69 20.8 73 73 NE 5 7 29.97 1015 10 16 0.00 0.00
12:35 pm 12:35 Partly Cloudy 79 25.9 69 20.4 72 72 ENE 5 7 29.97 1015 10 16 0.00 0.00
12:55 pm 12:55 Sunny 79 26.2 69 20.6 71 71 NE 3 6 29.97 1015 10 16 0.00 0.00
1:15 pm 13:15 Sunny 80 26.6 69 20.6 70 70 ENE 6 9 29.97 1015 10 16 0.00 0.00
1:35 pm 13:35 Sunny 80 26.5 70 20.9 71 71 ENE 5 7 29.97 1015 10 16 0.00 0.00
1:55 pm 13:55 Sunny 81 27 69 20.6 68 68 E 5 7 29.97 1015 10 16 0.00 0.00
2:15 pm 14:15 Mostly Cloudy 81 27.3 69 20.3 66 66 E 3 6 29.97 1015 10 16 0.00 0.00
2:35 pm 14:35 Mostly Cloudy 81 27.2 68 20.2 66 66 ENE 6 9 29.97 1015 10 16 0.00 0.00
2:55 pm 14:55 Partly Cloudy 81 27.4 68 20 64 64 E 8 13 29.97 1015 10 16 0.00 0.00
3:15 pm 15:15 Sunny 82 27.5 69 20.3 65 65 ENE 5 7 29.97 1015 10 16 0.00 0.00
3:35 pm 15:35 Sunny 81 27.4 69 20.5 66 66 NE 5 7 29.97 1015 10 16 0.00 0.00
3:55 pm 15:55 Partly Cloudy 81 27.4 68 20.1 64 64 ENE 5 7 29.97 1015 10 16 0.00 0.00
4:15 pm 16:15 Sunny 81 27.2 69 20.4 66 66 NE 6 9 29.94 1014 10 16 0.00 0.00
4:35 pm 16:35 Sunny 81 27.2 68 20.2 66 66 ENE 7 11 29.94 1014 10 16 0.00 0.00
4:55 pm 16:55 Sunny 82 27.7 68 19.9 63 63 E 5 7 29.94 1014 10 16 0.00 0.00
5:15 pm 17:15 Sunny 82 27.5 67 19.7 63 63 ENE 3 6 29.94 1014 10 16 0.00 0.00
5:35 pm 17:35 Sunny 81 27 68 19.9 65 65 E 6 9 29.94 1014 10 16 0.00 0.00
5:55 pm 17:55 Sunny 81 27 70 21 70 70 ENE 3 6 29.94 1014 10 16 0.00 0.00
6:15 pm 18:15 Sunny 79 26.3 68 19.9 68 68 ENE 7 11 29.94 1014 10 16 0.00 0.00
6:35 pm 18:35 Partly Cloudy 79 25.9 68 20.1 70 70 Calm 29.94 1014 10 16 0.00 0.00
6:55 pm 18:55 Sunny 78 25.5 68 20.2 73 73 ENE 5 7 29.94 1014 10 16 0.00 0.00
7:15 pm 19:15 Sunny 77 25.1 68 20.2 74 74 ENE 5 7 29.94 1014 10 16 0.00 0.00
7:35 pm 19:35 Sunny 75 24.1 69 20.4 80 80 ENE 3 6 29.91 1013 10 16 0.00 0.00
7:55 pm 19:55 Sunny 74 23.6 69 20.3 82 82 ENE 3 6 29.94 1014 10 16 0.00 0.00
8:15 pm 20:15 Sunny 74 23.5 67 19.6 79 79 E 3 6 29.94 1014 10 16 0.00 0.00
8:35 pm 20:35 Sunny 73 22.6 67 19.6 83 83 ENE 3 6 29.94 1014 10 16 0.00 0.00
8:55 pm 20:55 Clear 72 22 67 19.4 85 85 ENE 3 6 29.94 1014 10 16 0.00 0.00
9:15 pm 21:15 Clear 72 22.1 67 19.2 84 84 E 6 9 29.94 1014 10 16 0.00 0.00
9:35 pm 21:35 Clear 71 21.5 67 19.3 87 87 ENE 3 6 29.94 1014 10 16 0.00 0.00
9:55 pm 21:55 Clear 71 21.5 67 19.2 87 87 ENE 3 6 29.94 1014 10 16 0.00 0.00
10:15 pm 22:15 Clear 70 21 67 19.3 90 90 ENE 3 6 30.00 1016 10 16 0.00 0.00
10:35 pm 22:35 Clear 70 20.9 67 19.3 91 91 E 3 6 30.00 1016 10 16 0.00 0.00
10:55 pm 22:55 Clear 69 20.7 67 19.2 91 91 E 3 6 30.00 1016 10 16 0.00 0.00
11:15 pm 23:15 Clear 69 20.5 67 19.2 92 92 ESE 5 7 30.00 1016 10 16 0.00 0.00
11:35 pm 23:35 Clear 69 20.5 66 19 91 91 E 5 7 30.00 1016 10 16 0.00 0.00
11:55 pm 23:55 Clear 68 20.2 66 19 93 93 E 5 7 30.00 1016 10 16 0.00 0.00

Powered by AerisWeather